Lid_Strength_Index
3 2 2 1 1 1 0 0 0 -0 -0 0 1 1 1 -0 -1 -1 -1 -1 -2 -1 -1 -1 -1 -1 -1 -1 -1 -1 -0 -0 -1 0 -0 -0 -1 -0 -1 -1 -1 -1 -1
4 3 2 2 1 1 1 0 0 -0 -0 -0 -0 -0 -0 -0 -1 -1 -1 -1 -2 -2 -1 -1 -1 -1 -0 -1 -1 -1 -0 -0 -1 1 1 2 1 -0 -1 -1 -1 -1 -1
4 3 3 2 2 1 1 1 0 -0 -0 -1 -0 -0 -0 -0 0 0 -0 -1 -2 -1 -1 -1 -1 -1 -1 -0 -0 -0 0 1 -0 -0 1 3 4 2 -0 -0 -1 -1 -1
4 3 3 3 2 1 1 0 0 0 -0 -1 -0 0 1 1 1 0 -0 -1 -1 -1 -1 -1 -1 -1 -1 -1 -0 -1 -1 -0 1 -0 -1 -0 1 3 3 0 -0 -1 -0
4 4 3 2 2 1 1 0 0 0 -0 -0 -0 1 1 0 0 0 -0 -1 -1 -1 -1 -1 -1 -1 -1 -1 -1 -1 -1 -1 -0 0 0 0 0 0 2 4 2 -0 -0
4 3 2 2 2 1 1 1 1 1 -0 -0 -0 0 0 0 1 0 1 0 -0 -0 -1 -1 -1 -1 -1 -1 -1 -1 -1 -1 -1 -0 -0 1 1 2 2 2 2 2 1
4 4 3 3 2 2 1 1 1 1 0 0 0 0 0 0 0 0 0 0 0 0 -0 -1 -1 -1 -1 -1 -1 -1 -1 -1 -0 -0 -0 -0 0 0 1 1 2 2 1
4 4 3 3 2 2 2 1 1 1 1 0 0 -0 -0 0 0 -0 0 0 0 -0 -1 -1 -1 -1 -1 -1 -1 -1 -1 -1 -1 -0 -1 -1 -1 -1 -0 1 2 3 2
4 4 3 3 2 2 2 1 1 1 1 1 0 0 0 0 0 -0 -0 -0 -1 -0 -1 -1 -1 -1 -1 -1 -1 -0 -0 -1 -1 -1 -0 -0 -1 -1 -1 -1 0 2 4
4 4 3 3 2 1 1 1 1 1 1 0 0 0 0 -0 -0 -0 -0 -0 -1 -1 -1 -1 -1 -1 -1 -1 -1 -0 -1 -0 -0 -0 -0 -0 -1 -0 -1 -0 -0 0 2
5 4 4 2 2 2 1 1 1 1 1 1 0 0 0 -0 -0 -0 -0 -0 -1 -1 -0 -1 -1 -1 -0 -1 -1 -1 -1 -0 -0 -0 -0 -0 -1 -0 -0 -0 -0 0 1
5 4 4 3 3 2 2 2 1 1 1 1 1 0 0 -0 0 0 -0 -1 -0 -1 -1 -1 -0 -0 -0 -1 -0 -0 -0 0 0 -0 -0 0 0 -0 -0 0 0 0 0
6 6 5 5 5 4 2 2 1 1 1 1 1 1 1 1 0 0 -0 -0 -0 -1 -1 -1 -0 -0 -0 -0 -0 -0 -0 -0 -0 -0 -0 0 -0 0 0 0 0 0 0
7 7 6 6 6 6 5 3 2 1 1 1 1 1 1 0 1 -0 -0 -0 -0 -0 -0 -0 -0 -0 -0 -0 -0 -0 -0 -0 -0 -0 -0 -0 -0 0 -0 0 0 0 1
6 7 7 6 5 6 6 5 4 1 1 1 1 1 0 0 0 0 0 -0 -0 -0 -0 -0 -0 -0 -0 -0 -0 -0 -0 0 0 -0 -0 -1 -0 1 0 0 -0 -0 1
6 5 6 7 7 6 6 6 5 4 1 1 1 1 0 0 0 0 0 0 0 0 -0 -0 0 0 0 2 2 0 0 -0 0 0 -0 -0 0 0 2 2 2 0 0
6 6 5 4 6 6 4 5 5 5 4 4 2 1 1 1 1 0 0 1 0 0 0 0 0 0 -0 3 3 2 -0 0 0 0 0 0 -0 0 -0 2 3 3 3
6 6 6 6 4 4 5 4 4 5 6 6 5 4 3 1 1 1 1 0 0 0 1 0 0 0 0 4 4 2 -0 -0 -0 -0 -0 -0 -0 -0 -0 -0 0 -0 -0
6 5 5 5 5 3 3 3 2 4 5 6 6 5 5 4 3 1 1 1 1 1 1 0 0 0 0 5 4 3 0 0 0 -0 -0 -0 -0 2 4 0 1 0 0
6 6 5 5 5 5 3 3 2 3 5 5 6 5 5 4 4 3 2 1 1 1 1 1 0 1 0 4 6 4 0 1 1 0 -0 4 1 4 6 0 1 1 1
6 5 6 6 5 5 5 3 3 3 3 5 5 5 5 5 4 3 2 2 1 1 1 1 1 0 1 0 7 7 0 1 1 1 1 0 5 6 8 6 0 1 0
6 6 6 6 6 5 5 4 4 3 2 4 4 4 4 4 4 4 4 4 1 1 2 2 2 1 0 5 6 9 7 2 1 1 0 0 7 8 8 7 4 5 5
6 6 6 6 5 5 5 5 4 4 3 3 4 4 5 5 4 4 4 4 3 2 2 2 2 2 1 1 8 9 9 8 2 0 1 5 9 9 7 8 7 7 1
6 6 6 6 6 5 5 5 5 4 3 3 4 5 5 5 5 5 4 3 3 2 2 2 2 2 1 1 1 2 4 8 6 4 1 2 3 4 2 2 4 2 0
5 5 6 6 6 5 5 5 5 5 4 4 3 4 6 5 6 5 5 4 3 3 2 2 2 2 2 2 3 3 1 1 3 2 1 1 1 2 1 1 1 0 1
5 5 5 5 5 5 5 4 4 4 4 4 3 5 5 5 6 5 5 7 8 9 10 11 8 2 6 9 11 12 12 11 11 3 2 2 2 2 2 2 2 1 1